Savanna, IL

10:26 PM CST on December 03, 2016 (GMT -0600)
Tri-Township

Weather History for KSFY - January, 2014

Change the Weather History Date:

Friday, January 31, 2014

  Actual Average (KCWI) Record (KCWI)
Temperature  
Mean Temperature 11 °F -  
Max Temperature 15 °F 32 °F 67 °F (1989)
Min Temperature 7 °F 13 °F -17 °F (1963)
Degree Days  
Heating Degree Days 54    
Moisture  
Dew Point 2 °F    
Average Humidity 68    
Maximum Humidity 77    
Minimum Humidity 57    
Precipitation  
Precipitation 0.00 in - - ()
Sea Level Pressure  
Sea Level Pressure 30.11 in    
Wind  
Wind Speed 4 mph (WNW)    
Max Wind Speed 12 mph    
Max Gust Speed -    
Visibility 10 miles    
Events Snow    
Averages and records for this station are not official NWS values.
T = Trace of Precipitation, MM = Missing Value Source: NWS Daily Summary

Daily Weather History Graph

Daily Weather History Graph

Search for Another Location

Airport or City:

Trip Planner

Search our weather history database for the weather conditions in past years. The results will help you decide how hot, cold, wet, or windy it might be!

Date:

Astronomy

Jan. 31, 2014 Rise Set
Actual Time 7:14 AM CST 5:14 PM CST
Civil Twilight 6:44 AM CST 5:43 PM CST
Nautical Twilight 6:11 AM CST 6:17 PM CST
Astronomical Twilight 5:38 AM CST 6:50 PM CST
Moon 7:22 AM CST (1/31) 6:40 PM CST (1/31)
Length of Visible Light 10h 59m
Length of Day
9h 59m
New Moon, 1% of the Moon is Illuminated
Jan 31
New Moon
Feb 6
First Quarter
Feb 14
Full
Feb 22
Last Quarter
Mar 1
New

Hourly Weather History & Observations

Time (CST) Temp. Windchill Dew Point Humidity Pressure Visibility Wind Dir Wind Speed Gust Speed Precip Events Conditions
12:15 AM 15.4 °F 6.8 °F 8.2 °F 73% 29.97 in 10.0 mi NW 5.8 mph - N/A   Clear
12:35 AM 14.9 °F 9.2 °F 7.9 °F 74% 29.98 in 10.0 mi NW 3.5 mph - N/A   Clear
12:55 AM 14.0 °F 6.5 °F 7.3 °F 75% 30.00 in 10.0 mi West 4.6 mph - N/A   Clear
1:15 AM 13.6 °F 4.6 °F 7.2 °F 75% 30.01 in 10.0 mi WSW 5.8 mph - N/A   Clear
1:35 AM 12.9 °F 3.8 °F 6.8 °F 77% 30.02 in 10.0 mi WSW 5.8 mph - N/A   Clear
1:55 AM 12.7 °F 5.0 °F 6.8 °F 77% 30.03 in 10.0 mi West 4.6 mph - N/A   Clear
2:15 AM 12.6 °F 2.2 °F 6.3 °F 76% 30.04 in 10.0 mi West 6.9 mph - N/A   Clear
2:35 AM 12.2 °F 2.9 °F 5.9 °F 76% 30.04 in 10.0 mi WSW 5.8 mph - N/A   Clear
2:55 AM 11.8 °F - 5.5 °F 76% 30.04 in 10.0 mi Calm Calm - N/A   Clear
3:15 AM 11.3 °F 5.1 °F 5.0 °F 76% 30.06 in 10.0 mi West 3.5 mph - N/A   Clear
3:35 AM 10.4 °F 0.8 °F 4.1 °F 76% 30.06 in 10.0 mi West 5.8 mph - N/A   Clear
3:55 AM 10.0 °F 0.4 °F 3.7 °F 76% 30.06 in 10.0 mi West 5.8 mph - N/A   Clear
4:15 AM 9.5 °F -1.5 °F 3.2 °F 76% 30.07 in 10.0 mi West 6.9 mph - N/A   Clear
4:35 AM 9.3 °F -1.7 °F 2.7 °F 74% 30.09 in 10.0 mi West 6.9 mph - N/A   Clear
4:55 AM 9.0 °F -2.2 °F 2.1 °F 74% 30.10 in 10.0 mi West 6.9 mph - N/A   Clear
5:15 AM 8.6 °F -3.7 °F 2.1 °F 75% 30.09 in 10.0 mi WNW 8.1 mph - N/A   Clear
5:35 AM 8.6 °F -6.3 °F 1.4 °F 73% 30.10 in 10.0 mi WNW 11.5 mph - N/A   Clear
5:55 AM 8.6 °F -2.6 °F 1.2 °F 72% 30.11 in 10.0 mi WNW 6.9 mph - N/A   Clear
6:15 AM 8.4 °F -2.8 °F 1.0 °F 72% 30.11 in 10.0 mi WNW 6.9 mph - N/A   Clear
6:35 AM 8.1 °F -0.5 °F 0.5 °F 71% 30.11 in 10.0 mi NW 4.6 mph - N/A   Clear
6:55 AM 7.7 °F 1.0 °F 0.5 °F 72% 30.11 in 10.0 mi NW 3.5 mph - N/A   Clear
7:15 AM 7.5 °F 0.8 °F -0.2 °F 71% 30.11 in 10.0 mi NW 3.5 mph - N/A   Clear
7:35 AM 7.5 °F -1.1 °F -0.0 °F 71% 30.12 in 10.0 mi NW 4.6 mph - N/A   Clear
7:55 AM 7.7 °F -2.4 °F 0.1 °F 71% 30.15 in 10.0 mi WNW 5.8 mph - N/A   Clear
8:15 AM 7.7 °F 1.0 °F -0.4 °F 70% 30.15 in 10.0 mi West 3.5 mph - N/A   Clear
8:35 AM 7.7 °F -2.4 °F -0.6 °F 69% 30.16 in 10.0 mi West 5.8 mph - N/A   Clear
8:55 AM 7.7 °F -0.9 °F -0.8 °F 68% 30.15 in 10.0 mi WNW 4.6 mph - N/A   Clear
9:15 AM 8.1 °F -3.2 °F -0.4 °F 68% 30.16 in 10.0 mi WNW 6.9 mph - N/A   Clear
9:35 AM 8.4 °F -1.6 °F -0.6 °F 67% 30.15 in 10.0 mi WNW 5.8 mph - N/A   Clear
9:55 AM 9.0 °F -0.9 °F -0.4 °F 66% 30.17 in 10.0 mi West 5.8 mph - N/A   Clear
10:15 AM 8.8 °F -1.1 °F -0.8 °F 65% 30.19 in 10.0 mi West 5.8 mph - N/A   Scattered Clouds
10:35 AM 9.3 °F 2.8 °F -0.9 °F 63% 30.19 in 10.0 mi WSW 3.5 mph - N/A   Scattered Clouds
10:55 AM 9.9 °F - -0.4 °F 63% 30.20 in 10.0 mi Calm Calm - N/A   Scattered Clouds
11:15 AM 10.4 °F 2.2 °F 0.3 °F 64% 30.20 in 10.0 mi West 4.6 mph - N/A   Scattered Clouds
11:35 AM 10.4 °F 4.0 °F -0.0 °F 63% 30.18 in 10.0 mi WSW 3.5 mph - N/A   Scattered Clouds
11:55 AM 10.8 °F 2.7 °F -0.2 °F 61% 30.17 in 10.0 mi SW 4.6 mph - N/A   Scattered Clouds
12:15 PM 11.1 °F 1.7 °F 0.3 °F 62% 30.19 in 10.0 mi West 5.8 mph - N/A   Scattered Clouds
12:35 PM 11.3 °F 0.7 °F 0.9 °F 63% 30.18 in 10.0 mi West 6.9 mph - N/A   Scattered Clouds
12:55 PM 11.1 °F 1.7 °F 0.3 °F 62% 30.17 in 10.0 mi West 5.8 mph - N/A   Scattered Clouds
1:15 PM 11.3 °F 5.1 °F 0.5 °F 62% 30.16 in 10.0 mi West 3.5 mph - N/A   Clear
1:35 PM 12.0 °F 5.9 °F 1.2 °F 62% 30.15 in 10.0 mi WNW 3.5 mph - N/A   Scattered Clouds
1:55 PM 12.4 °F - 0.7 °F 60% 30.13 in 10.0 mi Calm Calm - N/A   Mostly Cloudy
2:15 PM 12.9 °F 6.9 °F 1.0 °F 59% 30.13 in 10.0 mi WSW 3.5 mph - N/A   Overcast
2:35 PM 13.1 °F 5.4 °F 2.1 °F 62% 30.14 in 10.0 mi SW 4.6 mph - N/A   Overcast
2:55 PM 13.3 °F 5.6 °F 2.3 °F 62% 30.14 in 10.0 mi WSW 4.6 mph - N/A   Mostly Cloudy
3:15 PM 13.5 °F 7.5 °F 2.1 °F 61% 30.13 in 10.0 mi WNW 3.5 mph - N/A   Overcast
3:35 PM 13.8 °F 8.0 °F 1.8 °F 59% 30.13 in 10.0 mi West 3.5 mph - N/A   Mostly Cloudy
3:55 PM 14.0 °F - 1.2 °F 57% 30.13 in 10.0 mi Calm Calm - N/A   Mostly Cloudy
4:15 PM 13.6 °F - 1.9 °F 60% 30.13 in 10.0 mi Calm Calm - N/A   Scattered Clouds
4:35 PM 13.5 °F - 2.3 °F 61% 30.13 in 10.0 mi Calm Calm - N/A   Clear
4:55 PM 13.1 °F - 2.1 °F 62% 30.12 in 10.0 mi Calm Calm - N/A   Clear
5:15 PM 13.1 °F - 2.1 °F 62% 30.12 in 10.0 mi Calm Calm - N/A   Clear
5:35 PM 12.7 °F - 2.8 °F 65% 30.13 in 10.0 mi Calm Calm - N/A   Clear
5:55 PM 12.2 °F 6.1 °F 3.4 °F 68% 30.12 in 10.0 mi NNW 3.5 mph - N/A   Scattered Clouds
6:15 PM 12.2 °F 4.3 °F 3.2 °F 67% 30.11 in 10.0 mi North 4.6 mph - N/A   Clear
6:35 PM 11.8 °F 5.7 °F 3.0 °F 68% 30.11 in 10.0 mi NE 3.5 mph - N/A   Clear
6:55 PM 12.0 °F 5.9 °F 1.8 °F 64% 30.11 in 10.0 mi NNE 3.5 mph - N/A   Clear
7:15 PM 11.8 °F 3.9 °F 1.4 °F 63% 30.11 in 10.0 mi NNE 4.6 mph - N/A   Clear
7:35 PM 11.7 °F 5.5 °F 2.3 °F 66% 30.11 in 10.0 mi NNE 3.5 mph - N/A   Clear
7:55 PM 11.3 °F 5.1 °F 3.6 °F 71% 30.11 in 10.0 mi NE 3.5 mph - N/A   Clear
8:15 PM 11.1 °F 4.9 °F 3.0 °F 70% 30.11 in 10.0 mi ENE 3.5 mph - N/A   Clear
8:35 PM 10.6 °F - 2.8 °F 71% 30.12 in 10.0 mi Calm Calm - N/A   Clear
8:55 PM 10.4 °F 4.0 °F 2.5 °F 70% 30.11 in 10.0 mi East 3.5 mph - N/A   Clear
9:15 PM 10.4 °F - 2.8 °F 72% 30.11 in 10.0 mi Calm Calm - N/A   Clear
9:35 PM 10.4 °F 4.0 °F 2.7 °F 71% 30.11 in 10.0 mi NE 3.5 mph - N/A   Clear
9:55 PM 10.8 °F - 2.5 °F 69% 30.10 in 10.0 mi Calm Calm - N/A   Mostly Cloudy
10:15 PM 10.9 °F - 2.3 °F 68% 30.09 in 10.0 mi Calm Calm - N/A   Overcast
10:35 PM 11.3 °F - 2.3 °F 67% 30.09 in 10.0 mi Calm Calm - N/A   Overcast
10:55 PM 11.5 °F - 2.8 °F 68% 30.09 in 10.0 mi Calm Calm - N/A   Overcast
11:15 PM 11.8 °F 5.7 °F 3.4 °F 69% 30.09 in 10.0 mi NE 3.5 mph - N/A   Overcast
11:35 PM 12.2 °F 6.1 °F 4.6 °F 72% 30.08 in 10.0 mi NNE 3.5 mph - N/A   Overcast
11:55 PM 12.6 °F 6.5 °F 5.5 °F 74% 30.07 in 3.0 mi NE 3.5 mph - N/A Snow Light Snow